#Datum;Uhrzeit;WR;Pac;DaySum;Status;WR;Pac;DaySum;Status;Pdc1;Udc;Temp;WR;Pac;DaySum;Status;Pdc1;Udc;Temp;WR;Pac;DaySum;Status;Pdc1;Udc;Temp;WR;Pac;DaySum;Status;Pdc1;Pdc2;Udc1;Udc2;Temp;WR;Pac;DaySum;Status;Pdc1;Pdc2;Udc1;Udc2;Temp;WR;Pac;DaySum;Status;Pdc1;Udc;Temp;WR;Pac;DaySum;Status;Pdc1;Udc;Temp;WR;Pac;DaySum;Status;Pdc1;Udc;Temp
02.10.21;23:55:00;1;450;9028;0;2;0;25380;0;0;0;0;3;0;16357;0;0;0;0;4;0;24352;0;0;0;0;5;0;57120;0;0;0;0;0;0;6;0;42759;0;0;0;0;0;0;7;0;37030;0;0;0;0;8;0;36288;0;0;0;0;9;0;19676;0;0;0;0
02.10.21;23:50:00;1;416;8990;0;2;0;25380;0;0;0;0;3;0;16357;0;0;0;0;4;0;24352;0;0;0;0;5;0;57120;0;0;0;0;0;0;6;0;42759;0;0;0;0;0;0;7;0;37030;0;0;0;0;8;0;36288;0;0;0;0;9;0;19676;0;0;0;0
02.10.21;23:45:00;1;453;8955;0;2;0;25380;0;0;0;0;3;0;16357;0;0;0;0;4;0;24352;0;0;0;0;5;0;57120;0;0;0;0;0;0;6;0;42759;0;0;0;0;0;0;7;0;37030;0;0;0;0;8;0;36288;0;0;0;0;9;0;19676;0;0;0;0
02.10.21;23:40:00;1;468;8917;0;2;0;25380;0;0;0;0;3;0;16357;0;0;0;0;4;0;24352;0;0;0;0;5;0;57120;0;0;0;0;0;0;6;0;42759;0;0;0;0;0;0;7;0;37030;0;0;0;0;8;0;36288;0;0;0;0;9;0;19676;0;0;0;0
02.10.21;23:35:00;1;484;8878;0;2;0;25380;0;0;0;0;3;0;16357;0;0;0;0;4;0;24352;0;0;0;0;5;0;57120;0;0;0;0;0;0;6;0;42759;0;0;0;0;0;0;7;0;37030;0;0;0;0;8;0;36288;0;0;0;0;9;0;19676;0;0;0;0
02.10.21;23:30:00;1;466;8837;0;2;0;25380;0;0;0;0;3;0;16357;0;0;0;0;4;0;24352;0;0;0;0;5;0;57120;0;0;0;0;0;0;6;0;42759;0;0;0;0;0;0;7;0;37030;0;0;0;0;8;0;36288;0;0;0;0;9;0;19676;0;0;0;0
02.10.21;23:25:00;1;478;8798;0;2;0;25380;0;0;0;0;3;0;16357;0;0;0;0;4;0;24352;0;0;0;0;5;0;57120;0;0;0;0;0;0;6;0;42759;0;0;0;0;0;0;7;0;37030;0;0;0;0;8;0;36288;0;0;0;0;9;0;19676;0;0;0;0
02.10.21;23:20:00;1;452;8759;0;2;0;25380;0;0;0;0;3;0;16357;0;0;0;0;4;0;24352;0;0;0;0;5;0;57120;0;0;0;0;0;0;6;0;42759;0;0;0;0;0;0;7;0;37030;0;0;0;0;8;0;36288;0;0;0;0;9;0;19676;0;0;0;0
02.10.21;23:15:00;1;449;8721;0;2;0;25380;0;0;0;0;3;0;16357;0;0;0;0;4;0;24352;0;0;0;0;5;0;57120;0;0;0;0;0;0;6;0;42759;0;0;0;0;0;0;7;0;37030;0;0;0;0;8;0;36288;0;0;0;0;9;0;19676;0;0;0;0
02.10.21;23:10:00;1;438;8684;0;2;0;25380;0;0;0;0;3;0;16357;0;0;0;0;4;0;24352;0;0;0;0;5;0;57120;0;0;0;0;0;0;6;0;42759;0;0;0;0;0;0;7;0;37030;0;0;0;0;8;0;36288;0;0;0;0;9;0;19676;0;0;0;0
02.10.21;23:05:00;1;434;8647;0;2;0;25380;0;0;0;0;3;0;16357;0;0;0;0;4;0;24352;0;0;0;0;5;0;57120;0;0;0;0;0;0;6;0;42759;0;0;0;0;0;0;7;0;37030;0;0;0;0;8;0;36288;0;0;0;0;9;0;19676;0;0;0;0
02.10.21;23:00:00;1;481;8611;0;2;0;25380;0;0;0;0;3;0;16357;0;0;0;0;4;0;24352;0;0;0;0;5;0;57120;0;0;0;0;0;0;6;0;42759;0;0;0;0;0;0;7;0;37030;0;0;0;0;8;0;36288;0;0;0;0;9;0;19676;0;0;0;0
02.10.21;22:55:00;1;387;8575;0;2;0;25380;0;0;0;0;3;0;16357;0;0;0;0;4;0;24352;0;0;0;0;5;0;57120;2;0;0;0;0;0;6;0;42759;2;0;0;0;0;0;7;0;37030;0;0;0;0;8;0;36288;0;0;0;0;9;0;19676;0;0;0;0
02.10.21;22:50:00;1;414;8542;0;2;0;25380;0;0;0;0;3;0;16357;0;0;0;0;4;0;24352;0;0;0;0;5;0;57120;2;0;0;0;0;0;6;0;42759;2;0;0;0;0;0;7;0;37030;0;0;0;0;8;0;36288;0;0;0;0;9;0;19676;0;0;0;0
02.10.21;22:45:00;1;395;8509;0;2;0;25380;0;0;0;0;3;0;16357;0;0;0;0;4;0;24352;0;0;0;0;5;0;57120;2;0;0;0;0;0;6;0;42759;2;0;0;0;0;0;7;0;37030;0;0;0;0;8;0;36288;0;0;0;0;9;0;19676;0;0;0;0
02.10.21;22:40:00;1;353;8475;0;2;0;25380;0;0;0;0;3;0;16357;0;0;0;0;4;0;24352;0;0;0;0;5;0;57120;2;0;0;0;0;0;6;0;42759;2;0;0;0;0;0;7;0;37030;0;0;0;0;8;0;36288;0;0;0;0;9;0;19676;0;0;0;0
02.10.21;22:35:00;1;315;8445;0;2;0;25380;0;0;0;0;3;0;16357;0;0;0;0;4;0;24352;0;0;0;0;5;0;57120;2;0;0;0;0;0;6;0;42759;2;0;0;0;0;0;7;0;37030;0;0;0;0;8;0;36288;0;0;0;0;9;0;19676;0;0;0;0
02.10.21;22:30:00;1;1566;8419;0;2;0;25380;0;0;0;0;3;0;16357;0;0;0;0;4;0;24352;0;0;0;0;5;0;57120;2;0;0;0;0;0;6;0;42759;2;0;0;0;0;0;7;0;37030;0;0;0;0;8;0;36288;0;0;0;0;9;0;19676;0;0;0;0
02.10.21;22:25:00;1;412;8316;0;2;0;25380;0;0;0;0;3;0;16357;0;0;0;0;4;0;24352;0;0;0;0;5;0;57120;2;0;0;0;0;0;6;0;42759;2;0;0;0;0;0;7;0;37030;0;0;0;0;8;0;36288;0;0;0;0;9;0;19676;0;0;0;0
02.10.21;22:20:00;1;441;8281;0;2;0;25380;0;0;0;0;3;0;16357;0;0;0;0;4;0;24352;0;0;0;0;5;0;57120;2;0;0;0;0;0;6;0;42759;2;0;0;0;0;0;7;0;37030;0;0;0;0;8;0;36288;0;0;0;0;9;0;19676;0;0;0;0
02.10.21;22:15:00;1;456;8244;0;2;0;25380;0;0;0;0;3;0;16357;0;0;0;0;4;0;24352;0;0;0;0;5;0;57120;2;0;0;0;0;0;6;0;42759;2;0;0;0;0;0;7;0;37030;0;0;0;0;8;0;36288;0;0;0;0;9;0;19676;0;0;0;0
02.10.21;22:10:00;1;443;8207;0;2;0;25380;0;0;0;0;3;0;16357;0;0;0;0;4;0;24352;0;0;0;0;5;0;57120;2;0;0;0;0;0;6;0;42759;2;0;0;0;0;0;7;0;37030;0;0;0;0;8;0;36288;0;0;0;0;9;0;19676;0;0;0;0
02.10.21;22:05:00;1;304;8160;0;2;0;25380;0;0;0;0;3;0;16357;0;0;0;0;4;0;24352;0;0;0;0;5;0;57120;2;0;0;0;0;0;6;0;42759;2;0;0;0;0;0;7;0;37030;0;0;0;0;8;0;36288;0;0;0;0;9;0;19676;0;0;0;0
02.10.21;22:00:00;1;275;8130;0;2;0;25380;0;0;0;0;3;0;16357;0;0;0;0;4;0;24352;0;0;0;0;5;0;57120;2;0;0;0;0;0;6;0;42759;2;0;0;0;0;0;7;0;37030;0;0;0;0;8;0;36288;0;0;0;0;9;0;19676;0;0;0;0
02.10.21;21:55:00;1;322;8106;0;2;0;25380;0;0;0;0;3;0;16357;0;0;0;0;4;0;24352;0;0;0;0;5;0;57120;2;0;0;0;0;0;6;0;42759;2;0;0;0;0;0;7;0;37030;0;0;0;0;8;0;36288;0;0;0;0;9;0;19676;0;0;0;0
02.10.21;21:50:00;1;293;8079;0;2;0;25380;0;0;0;0;3;0;16357;0;0;0;0;4;0;24352;0;0;0;0;5;0;57120;2;0;0;0;0;0;6;0;42759;2;0;0;0;0;0;7;0;37030;0;0;0;0;8;0;36288;0;0;0;0;9;0;19676;0;0;0;0
02.10.21;21:45:00;1;300;8055;0;2;0;25380;0;0;0;0;3;0;16357;0;0;0;0;4;0;24352;0;0;0;0;5;0;57120;2;0;0;0;0;0;6;0;42759;2;0;0;0;0;0;7;0;37030;0;0;0;0;8;0;36288;0;0;0;0;9;0;19676;0;0;0;0
02.10.21;21:40:00;1;373;8029;0;2;0;25380;0;0;0;0;3;0;16357;0;0;0;0;4;0;24352;0;0;0;0;5;0;57120;2;0;0;0;0;0;6;0;42759;2;0;0;0;0;0;7;0;37030;0;0;0;0;8;0;36288;0;0;0;0;9;0;19676;0;0;0;0
02.10.21;21:35:00;1;375;7998;0;2;0;25380;0;0;0;0;3;0;16357;0;0;0;0;4;0;24352;0;0;0;0;5;0;57120;2;0;0;0;0;0;6;0;42759;2;0;0;0;0;0;7;0;37030;0;0;0;0;8;0;36288;0;0;0;0;9;0;19676;0;0;0;0
02.10.21;21:30:00;1;330;7967;0;2;0;25380;0;0;0;0;3;0;16357;0;0;0;0;4;0;24352;0;0;0;0;5;0;57120;2;0;0;0;0;0;6;0;42759;2;0;0;0;0;0;7;0;37030;0;0;0;0;8;0;36288;0;0;0;0;9;0;19676;0;0;0;0
02.10.21;21:25:00;1;314;7940;0;2;0;25380;0;0;0;0;3;0;16357;0;0;0;0;4;0;24352;0;0;0;0;5;0;57120;2;0;0;0;0;0;6;0;42759;2;0;0;0;0;0;7;0;37030;0;0;0;0;8;0;36288;0;0;0;0;9;0;19676;0;0;0;0
02.10.21;21:20:00;1;313;7914;0;2;0;25380;0;0;0;0;3;0;16357;0;0;0;0;4;0;24352;0;0;0;0;5;0;57120;2;0;0;0;0;0;6;0;42759;2;0;0;0;0;0;7;0;37030;0;0;0;0;8;0;36288;0;0;0;0;9;0;19676;0;0;0;0
02.10.21;21:15:00;1;340;7887;0;2;0;25380;0;0;0;0;3;0;16357;0;0;0;0;4;0;24352;0;0;0;0;5;0;57120;2;0;0;0;0;0;6;0;42759;2;0;0;0;0;0;7;0;37030;0;0;0;0;8;0;36288;0;0;0;0;9;0;19676;0;0;0;0
02.10.21;21:10:00;1;380;7859;0;2;0;25380;0;0;0;0;3;0;16357;0;0;0;0;4;0;24352;0;0;0;0;5;0;57120;2;0;0;0;0;0;6;0;42759;2;0;0;0;0;0;7;0;37030;0;0;0;0;8;0;36288;0;0;0;0;9;0;19676;0;0;0;0
02.10.21;21:05:00;1;342;7827;0;2;0;25380;0;0;0;0;3;0;16357;0;0;0;0;4;0;24352;0;0;0;0;5;0;57120;2;0;0;0;0;0;6;0;42759;2;0;0;0;0;0;7;0;37030;0;0;0;0;8;0;36288;0;0;0;0;9;0;19676;0;0;0;0
02.10.21;21:00:00;1;351;7798;0;2;0;25380;0;0;0;0;3;0;16357;0;0;0;0;4;0;24352;0;0;0;0;5;0;57120;2;0;0;0;0;0;6;0;42759;2;0;0;0;0;0;7;0;37030;0;0;0;0;8;0;36288;0;0;0;0;9;0;19676;0;0;0;0
02.10.21;20:55:00;1;318;7769;0;2;0;25380;0;0;0;0;3;0;16357;0;0;0;0;4;0;24352;0;0;0;0;5;0;57120;2;0;0;0;0;0;6;0;42759;2;0;0;0;0;0;7;0;37030;0;0;0;0;8;0;36288;0;0;0;0;9;0;19676;0;0;0;0
02.10.21;20:50:00;1;324;7743;0;2;0;25380;0;0;0;0;3;0;16357;0;0;0;0;4;0;24352;0;0;0;0;5;0;57120;2;0;0;0;0;0;6;0;42759;2;0;0;0;0;0;7;0;37030;0;0;0;0;8;0;36288;0;0;0;0;9;0;19676;0;0;0;0
02.10.21;20:45:00;1;366;7715;0;2;0;25380;0;0;0;0;3;0;16357;0;0;0;0;4;0;24352;0;0;0;0;5;0;57120;2;0;0;0;0;0;6;0;42759;2;0;0;0;0;0;7;0;37030;0;0;0;0;8;0;36288;0;0;0;0;9;0;19676;0;0;0;0
02.10.21;20:40:00;1;345;7684;0;2;0;25380;0;0;0;0;3;0;16357;0;0;0;0;4;0;24352;0;0;0;0;5;0;57120;2;0;0;0;0;0;6;0;42759;2;0;0;0;0;0;7;0;37030;0;0;0;0;8;0;36288;0;0;0;0;9;0;19676;0;0;0;0
02.10.21;20:35:00;1;325;7657;0;2;0;25380;0;0;0;0;3;0;16357;0;0;0;0;4;0;24352;0;0;0;0;5;0;57120;2;0;0;0;0;0;6;0;42759;2;0;0;0;0;0;7;0;37030;0;0;0;0;8;0;36288;0;0;0;0;9;0;19676;0;0;0;0
02.10.21;20:30:00;1;415;7629;0;2;0;25380;0;0;0;0;3;0;16357;0;0;0;0;4;0;24352;0;0;0;0;5;0;57120;2;0;0;0;0;0;6;0;42759;2;0;0;0;0;0;7;0;37030;0;0;0;0;8;0;36288;0;0;0;0;9;0;19676;0;0;0;0
02.10.21;20:25:00;1;463;7593;0;2;0;25380;0;0;0;0;3;0;16357;0;0;0;0;4;0;24352;0;0;0;0;5;0;57120;2;0;0;0;0;0;6;0;42759;2;0;0;0;0;0;7;0;37030;0;0;0;0;8;0;36288;0;0;0;0;9;0;19676;0;0;0;0
02.10.21;20:20:00;1;464;7555;0;2;0;25380;0;0;0;0;3;0;16357;0;0;0;0;4;0;24352;0;0;0;0;5;0;57120;2;0;0;0;0;0;6;0;42759;2;0;0;0;0;0;7;0;37030;0;0;0;0;8;0;36288;0;0;0;0;9;0;19676;0;0;0;0
02.10.21;20:15:00;1;380;7518;0;2;0;25380;0;0;0;0;3;0;16357;0;0;0;0;4;0;24352;0;0;0;0;5;0;57120;2;0;0;0;0;0;6;0;42759;2;0;0;0;0;0;7;0;37030;0;0;0;0;8;0;36288;0;0;0;0;9;0;19676;0;0;0;0
02.10.21;20:10:00;1;319;7487;0;2;0;25380;0;0;0;0;3;0;16357;0;0;0;0;4;0;24352;0;0;0;0;5;0;57120;2;0;0;0;0;0;6;0;42759;2;0;0;0;0;0;7;0;37030;0;0;0;0;8;0;36288;0;0;0;0;9;0;19676;0;0;0;0
02.10.21;20:05:00;1;273;7460;0;2;0;25380;0;0;0;0;3;0;16357;0;0;0;0;4;0;24352;0;0;0;0;5;0;57120;2;0;0;0;0;0;6;0;42759;2;0;0;0;0;0;7;0;37030;0;0;0;0;8;0;36288;0;0;0;0;9;0;19676;0;0;0;0
02.10.21;20:00:00;1;274;7437;0;2;0;25380;0;0;0;0;3;0;16357;0;0;0;0;4;0;24352;0;0;0;0;5;0;57120;2;0;0;0;0;0;6;0;42759;2;0;0;0;0;0;7;0;37030;0;0;0;0;8;0;36288;0;0;0;0;9;0;19676;0;0;0;0
02.10.21;19:55:00;1;333;7414;0;2;0;25380;0;0;0;0;3;0;16357;0;0;0;0;4;0;24352;0;0;0;0;5;0;57120;2;0;0;0;0;0;6;0;42759;2;0;0;0;0;0;7;0;37030;0;0;0;0;8;0;36288;0;0;0;0;9;0;19676;0;0;0;0
02.10.21;19:50:00;1;336;7386;0;2;0;25380;0;0;0;0;3;0;16357;0;0;0;0;4;0;24352;0;0;0;0;5;0;57120;2;0;0;0;0;0;6;0;42759;2;0;0;0;0;0;7;0;37030;0;0;0;0;8;0;36288;0;0;0;0;9;0;19676;0;0;0;0
02.10.21;19:45:00;1;352;7358;0;2;0;25380;0;0;0;0;3;0;16357;0;0;0;0;4;0;24352;0;0;0;0;5;0;57120;2;0;0;0;0;0;6;0;42759;2;0;0;0;0;0;7;0;37030;0;0;0;0;8;0;36288;0;0;0;0;9;0;19676;0;0;0;0
02.10.21;19:40:00;1;345;7328;0;2;0;25380;0;0;0;0;3;0;16357;0;0;0;0;4;0;24352;0;0;0;0;5;0;57120;2;0;0;0;0;0;6;0;42759;2;0;0;0;0;0;7;0;37030;0;0;0;0;8;0;36288;0;0;0;0;9;0;19676;0;0;0;0
02.10.21;19:35:00;1;371;7299;0;2;0;25380;0;0;0;0;3;0;16357;0;0;0;0;4;0;24352;0;0;0;0;5;0;57120;2;0;0;0;0;0;6;0;42759;2;0;0;0;0;0;7;0;37030;0;0;0;0;8;0;36288;0;0;0;0;9;0;19676;0;0;0;0
02.10.21;19:30:00;1;325;7268;0;2;0;25380;0;0;0;0;3;0;16357;0;0;0;0;4;0;24352;0;0;0;0;5;0;57120;2;0;0;0;0;0;6;0;42759;2;0;0;0;0;0;7;0;37030;0;0;0;0;8;0;36288;0;0;0;0;9;0;19676;0;0;0;0
02.10.21;19:25:00;1;326;7240;0;2;0;25380;0;0;0;0;3;0;16357;0;0;0;0;4;0;24352;0;0;0;0;5;0;57120;2;0;0;0;0;0;6;0;42759;2;0;0;0;0;0;7;0;37030;0;0;0;0;8;0;36288;0;0;0;0;9;0;19676;0;0;0;0
02.10.21;19:20:00;1;379;7213;0;2;0;25380;0;0;0;0;3;0;16357;0;0;0;0;4;0;24352;0;0;0;0;5;0;57120;2;0;0;0;0;0;6;0;42759;2;0;0;0;0;0;7;0;37030;0;0;0;0;8;0;36288;0;0;0;0;9;0;19676;0;0;0;0
02.10.21;19:15:00;1;389;7181;0;2;0;25380;0;0;0;0;3;0;16357;0;0;0;0;4;0;24352;0;0;0;0;5;0;57120;2;0;0;0;0;0;6;0;42759;2;0;0;0;0;0;7;0;37030;0;0;0;0;8;0;36288;0;0;0;0;9;0;19676;0;0;0;0
02.10.21;19:10:00;1;496;7148;0;2;0;25380;0;0;0;0;3;0;16357;0;0;0;0;4;0;24352;0;0;0;0;5;0;57120;2;0;0;0;0;0;6;0;42759;2;0;0;0;0;0;7;0;37030;0;0;0;0;8;0;36288;0;0;0;0;9;0;19676;0;0;0;0
02.10.21;19:05:00;1;314;7119;0;2;0;25380;0;0;0;0;3;0;16357;0;0;114;11;4;0;24352;0;0;0;0;5;0;57120;2;0;0;0;0;0;6;0;42759;2;0;0;0;0;0;7;0;37030;0;0;0;0;8;0;36288;0;0;0;0;9;0;19676;0;0;0;0
02.10.21;19:00:00;1;302;7093;0;2;0;25380;2;0;270;26;3;0;16357;6;0;309;27;4;0;24352;0;0;56;25;5;0;57120;2;0;0;0;0;0;6;0;42759;2;0;0;0;0;0;7;0;37030;0;0;0;0;8;0;36288;0;0;0;0;9;0;19676;0;0;0;0
02.10.21;18:55:00;1;270;7068;0;2;0;25380;6;0;314;27;3;0;16357;6;0;387;28;4;0;24352;1;0;112;31;5;0;57120;2;3;8;160;158;31;6;0;42759;2;0;0;0;0;0;7;0;37030;0;0;86;10;8;0;36288;0;0;86;9;9;0;19676;0;0;133;12
02.10.21;18:50:00;1;270;7046;0;2;0;25380;6;0;343;27;3;0;16357;6;2;417;28;4;0;24352;1;0;155;32;5;0;57120;23;0;0;362;362;38;6;0;42759;26;0;0;421;418;35;7;0;37030;6;0;308;30;8;0;36288;6;0;307;30;9;0;19676;6;0;316;25
02.10.21;18:45:00;1;269;7023;0;2;0;25380;6;0;367;28;3;1;16356;6;2;436;29;4;0;24352;1;0;197;33;5;0;57120;23;0;0;387;512;39;6;0;42759;23;0;0;521;517;36;7;0;37030;6;1;372;31;8;0;36288;6;0;379;30;9;0;19676;6;0;395;26
02.10.21;18:40:00;1;321;7001;0;2;0;25380;6;0;388;29;3;0;16356;6;6;476;29;4;0;24352;3;0;195;34;5;26;57120;1;0;2;391;620;39;6;7;42759;4;0;0;540;529;36;7;2;37030;6;4;420;31;8;0;36288;6;2;424;31;9;0;19676;6;2;447;26
02.10.21;18:35:00;1;359;6973;0;2;57;25380;4;89;352;30;3;3;16356;6;9;506;30;4;17;24352;3;18;198;34;5;100;57117;4;6;16;371;592;40;6;76;42758;4;0;12;515;498;37;7;18;37029;6;34;413;32;8;7;36288;4;14;436;31;9;0;19676;6;4;497;27
02.10.21;18:30:00;1;388;6943;0;2;105;25376;4;142;355;31;3;59;16356;4;94;435;31;4;47;24350;3;49;197;34;5;140;57108;4;24;39;371;592;40;6;107;42752;4;0;29;515;498;37;7;68;37028;4;98;398;33;8;47;36287;4;81;392;32;9;2;19676;4;6;508;27
02.10.21;18:25:00;1;420;6910;0;2;186;25367;4;225;363;32;3;101;16351;4;139;440;31;4;112;24346;3;117;212;35;5;188;57096;4;55;58;371;592;40;6;141;42742;4;12;47;515;498;38;7;142;37022;4;178;402;33;8;73;36283;4;105;343;26;9;10;19675;3;20;504;28
02.10.21;18:20:00;1;383;6874;0;2;265;25351;4;309;379;32;3;148;16343;4;185;386;32;4;195;24337;5;203;217;35;5;235;57080;4;79;83;371;592;40;6;178;42730;4;32;65;515;498;38;7;240;37011;4;280;426;33;8;132;36276;4;167;421;32;9;11;19674;6;17;532;28
02.10.21;18:15:00;1;290;6843;0;2;364;25329;4;410;358;33;3;208;16330;4;245;389;32;4;284;24321;5;296;222;36;5;293;57060;4;113;106;371;592;40;6;221;42715;4;52;89;515;498;38;7;362;36991;4;404;440;34;8;182;36265;4;223;421;33;9;65;19673;4;100;468;29
02.10.21;18:10:00;1;319;6818;0;2;647;25299;4;703;354;34;3;384;16313;4;429;407;33;4;526;24297;5;547;226;37;5;378;57035;4;156;147;371;592;41;6;284;42696;4;87;117;515;498;38;7;671;36961;4;720;450;34;8;281;36250;4;322;411;33;9;85;19668;4;120;474;30
02.10.21;18:05:00;1;320;6792;0;2;912;25245;4;977;356;35;3;544;16281;4;595;410;33;4;751;24253;5;782;230;37;5;480;57002;4;201;191;391;592;41;6;366;42672;4;122;156;515;498;38;7;986;36905;4;1046;454;34;8;498;36226;4;549;424;34;9;91;19661;4;132;506;30
02.10.21;18:00:00;1;297;6765;0;2;1000;25169;4;1065;353;36;3;597;16236;4;649;399;33;4;831;24191;5;865;232;37;5;513;56962;4;236;197;359;592;41;6;418;42641;4;154;184;515;498;38;7;1132;36823;4;1200;460;35;8;657;36185;4;709;444;34;9;101;19653;4;138;504;31
02.10.21;17:55:00;1;299;6741;0;2;702;25088;4;760;355;36;3;416;16187;4;459;401;34;4;581;24123;5;606;223;38;5;523;56920;4;233;208;384;589;41;6;397;42607;4;138;174;516;508;38;7;758;36730;4;811;450;35;8;489;36131;4;537;435;34;9;105;19645;4;143;511;31
02.10.21;17:50:00;1;300;6716;0;2;1089;25030;4;1160;358;37;3;640;16153;4;693;404;34;4;908;24075;5;946;229;38;5;724;56875;4;318;310;405;611;41;6;565;42573;4;218;260;526;543;38;7;1211;36667;4;1289;463;35;8;738;36090;4;789;368;35;9;101;19636;4;126;396;25
02.10.21;17:45:00;1;294;6691;0;2;1016;24939;4;1085;356;38;3;579;16099;4;630;396;35;4;836;23999;5;870;226;39;5;781;56814;4;352;332;381;621;42;6;601;42526;4;238;274;532;522;39;7;1140;36566;4;1209;456;36;8;855;36028;4;905;379;35;9;123;19625;4;154;375;32
02.10.21;17:40:00;1;263;6667;0;2;1451;24854;4;1536;361;39;3;815;16051;4;874;402;35;4;1197;23929;5;1247;229;39;5;1126;56747;4;553;471;386;634;42;6;865;42474;4;354;389;567;542;39;7;1616;36471;4;1709;463;36;8;1357;35958;4;1433;403;36;9;174;19615;4;205;361;33
02.10.21;17:35:00;1;301;6644;0;2;1682;24734;4;1775;362;40;3;936;15983;4;1001;410;36;4;1403;23830;5;1461;230;40;5;1418;56651;4;712;583;407;648;42;6;1055;42401;4;448;489;577;552;39;7;1876;36335;4;1976;459;37;8;1692;35842;4;1783;428;36;9;401;19600;4;439;358;34
02.10.21;17:30:00;1;302;6619;0;2;1873;24594;4;1976;366;41;3;1070;15906;4;1141;415;36;4;1602;23714;5;1669;230;40;5;1686;56531;4;868;702;407;659;42;6;1269;42312;4;560;596;576;545;39;7;2217;36179;4;2329;464;37;8;2087;35702;4;2191;444;37;9;708;19567;4;758;359;35
02.10.21;17:25:00;1;359;6593;0;2;1990;24440;4;2096;364;41;3;1125;15817;4;1198;415;36;4;1650;23582;5;1718;232;40;5;1855;56392;4;966;775;412;671;43;6;1381;42208;4;618;643;569;545;39;7;2244;35996;4;2358;463;37;8;2147;35531;4;2253;450;37;9;814;19509;4;868;362;35
02.10.21;17:20:00;1;380;6563;0;2;2000;24276;4;2111;377;42;3;1105;15724;4;1174;416;36;4;1595;23445;5;1661;233;40;5;1920;56236;4;986;806;411;647;43;6;1445;42091;4;645;685;582;542;39;7;2273;35813;4;2394;460;38;8;2219;35354;4;2338;463;37;9;886;19442;4;942;381;36
02.10.21;17:15:00;1;419;6531;0;2;1905;24107;4;2010;372;42;3;1053;15631;4;1121;415;37;4;1499;23310;5;1561;230;41;5;1938;56073;4;996;818;411;658;43;6;1473;41968;4;667;686;577;545;40;7;2251;35618;4;2366;457;38;8;2222;35164;4;2334;460;38;9;959;19366;4;1020;411;37
02.10.21;17:10:00;1;344;6499;0;2;1519;23947;4;1610;366;42;3;835;15542;4;897;410;37;4;1197;23184;5;1246;233;41;5;1644;55914;4;838;687;403;649;44;6;1237;41847;4;547;574;560;544;40;7;1760;35430;4;1862;455;38;8;1724;34978;4;1818;454;38;9;773;19286;4;831;434;37
02.10.21;17:05:00;1;321;6471;0;2;1918;23819;4;2028;376;43;3;1032;15472;4;1100;411;37;4;1485;23084;5;1546;228;42;5;2058;55775;4;1072;868;406;651;44;6;1538;41743;4;702;724;568;544;40;7;2164;35282;4;2284;457;39;8;2111;34834;4;2229;459;39;9;1006;19221;4;1078;468;38
02.10.21;17:00:00;1;386;6443;0;2;2224;23660;4;2346;371;44;3;1204;15386;4;1279;413;38;4;1709;22961;5;1780;221;42;5;2466;55600;4;1289;1052;408;663;44;6;1848;41613;4;868;873;567;548;40;7;2590;35104;4;2712;455;39;8;2536;34660;4;2665;454;39;9;1278;19139;4;1363;482;39
02.10.21;16:55:00;1;361;6413;0;2;2173;23475;4;2293;377;45;3;1138;15286;4;1208;403;38;4;1587;22819;5;1654;209;42;5;2478;55394;4;1309;1059;404;655;45;6;1857;41459;4;873;874;562;543;40;7;2501;34887;4;2629;466;40;8;2462;34447;4;2590;452;39;9;1286;19031;4;1374;499;40
02.10.21;16:50:00;1;314;6382;0;2;2167;23294;4;2287;374;45;3;1139;15191;4;1210;400;38;4;1545;22686;5;1610;211;43;5;2575;55186;4;1354;1091;402;652;45;6;1923;41303;4;901;916;565;541;41;7;2516;34678;4;2650;460;40;8;2467;34242;4;2593;450;40;9;1311;18925;4;1401;504;40
02.10.21;16:45:00;1;360;6356;0;2;2521;23113;4;2660;374;46;3;1317;15096;4;1393;396;39;4;1804;22557;5;1879;221;43;5;3103;54970;4;1655;1332;402;656;45;6;2302;41141;4;1102;1102;563;544;41;7;2911;34467;4;3062;456;41;8;2851;34035;4;2998;451;40;9;1532;18815;4;1634;502;41
02.10.21;16:40:00;1;460;6325;0;2;2914;22904;4;3067;374;47;3;1528;14987;4;1611;402;39;4;2092;22407;5;2179;216;44;5;3700;54709;4;1994;1604;406;655;45;6;2764;40947;4;1344;1323;569;544;41;7;3438;34226;4;3614;455;41;8;3389;33800;4;3553;452;40;9;1838;18688;4;1946;496;42
02.10.21;16:35:00;1;463;6286;0;2;2776;22662;4;2930;375;47;3;1466;14860;4;1547;399;39;4;2040;22234;5;2125;228;44;5;3691;54401;4;1989;1598;402;654;46;6;2765;40717;4;1344;1330;571;542;41;7;3365;33941;4;3533;451;41;8;3295;33519;4;3460;452;41;9;1779;18536;4;1891;503;42
02.10.21;16:30:00;1;446;6248;0;2;2752;22430;4;2903;374;47;3;1482;14737;4;1566;411;40;4;2063;22063;5;2148;223;45;5;3716;54095;4;2000;1615;405;653;46;6;2767;40489;4;1340;1335;570;540;41;7;3312;33663;4;3474;454;41;8;3267;33246;4;3431;440;41;9;1786;18389;4;1891;491;42
02.10.21;16:25:00;1;409;6210;0;2;2631;22202;4;2771;367;48;3;1455;14614;4;1536;402;40;4;2016;21892;5;2101;225;45;5;3630;53786;4;1944;1575;401;649;46;6;2724;40259;4;1321;1311;568;540;41;7;3131;33385;4;3291;456;42;8;3095;32971;4;3249;445;42;9;1682;18240;4;1784;499;42
02.10.21;16:20:00;1;377;6176;0;2;2713;21982;4;2858;364;48;3;1514;14492;4;1602;421;41;4;2114;21724;5;2201;229;46;5;3803;53484;4;2059;1649;402;646;47;6;2828;40032;4;1368;1366;564;541;42;7;3224;33123;4;3390;444;42;8;3167;32713;4;3327;447;42;9;1723;18098;4;1832;497;43
02.10.21;16:15:00;1;312;6146;0;2;2802;21756;4;2954;371;49;3;1580;14366;4;1670;408;41;4;2174;21547;5;2264;228;46;5;3964;53166;4;2138;1724;400;645;47;6;2941;39796;4;1432;1422;560;537;42;7;3328;32853;4;3499;447;43;8;3285;32447;4;3446;440;42;9;1793;17953;4;1905;494;44
02.10.21;16:10:00;1;325;6120;0;2;3204;21523;4;3375;366;50;3;1806;14234;4;1905;410;42;4;2521;21366;5;2626;225;47;5;4569;52836;4;2475;1992;400;646;47;6;3392;39550;4;1674;1640;560;538;42;7;3808;32578;4;4009;441;43;8;3763;32176;4;3956;444;43;9;2064;17805;4;2189;494;44
02.10.21;16:05:00;1;376;6092;0;2;3175;21257;4;3343;359;50;3;1805;14084;4;1897;404;42;4;2551;21157;5;2657;223;47;5;4685;52450;4;2544;2041;399;640;47;6;3502;39264;4;1725;1699;556;535;42;7;3899;32259;4;4096;443;43;8;3859;31861;4;4054;439;43;9;2118;17634;4;2244;491;44
02.10.21;16:00:00;1;380;6060;0;2;3271;20991;4;3449;365;50;3;1871;13934;4;1973;424;42;4;2662;20944;5;2773;221;47;5;4891;52058;4;2651;2139;397;640;48;6;3636;38971;4;1797;1767;560;533;42;7;4009;31934;4;4214;442;44;8;3958;31539;4;4156;435;43;9;2171;17456;4;2298;493;45
02.10.21;15:55:00;1;446;6028;0;2;3250;20720;4;3421;361;50;3;1881;13778;4;1983;415;42;4;2746;20722;5;2860;223;48;5;4974;51647;4;2704;2169;396;636;48;6;3705;38665;4;1834;1806;555;541;42;7;4029;31603;4;4243;438;44;8;3976;31211;4;4183;438;44;9;2190;17277;4;2317;480;45
02.10.21;15:50:00;1;434;5991;0;2;3336;20449;4;3514;361;51;3;1941;13621;4;2044;410;43;4;2847;20493;5;2966;220;48;5;5204;51232;4;2833;2278;398;636;48;6;3863;38356;4;1915;1887;551;536;43;7;4162;31264;4;4380;436;44;8;4099;30877;4;4303;439;44;9;2255;17092;4;2388;485;46
02.10.21;15:45:00;1;414;5955;0;2;3540;20171;4;3724;361;51;3;2053;13459;4;2161;416;43;4;3070;20256;5;3198;221;48;5;5616;50794;4;3066;2468;394;631;48;6;4169;38031;4;2077;2041;549;531;43;7;4437;30917;4;4664;438;45;8;4374;30535;4;4594;436;44;9;2405;16904;4;2541;478;46
02.10.21;15:40:00;1;412;5921;0;2;3683;19877;4;3879;358;52;3;2127;13288;4;2239;408;43;4;3230;20001;5;3365;220;49;5;5911;50325;4;3247;2599;392;629;48;6;4377;37682;4;2203;2130;550;524;43;7;3717;30551;4;3907;350;36;8;4570;30174;4;4813;436;44;9;2527;16707;4;2676;490;46
02.10.21;15:35:00;1;405;5886;0;2;3700;19569;4;3898;362;52;3;2178;13111;4;2291;427;44;4;3272;19732;5;3408;220;49;5;6070;49832;4;3336;2676;393;627;49;6;4505;37316;4;2261;2204;547;527;43;7;4706;30160;4;4950;438;45;8;4640;29793;4;4876;433;44;9;2567;16494;4;2717;481;47
02.10.21;15:30:00;1;410;5853;0;2;3696;19260;4;3890;363;52;3;2196;12930;4;2311;421;44;4;3293;19459;5;3430;220;49;5;6159;49326;4;3380;2711;396;630;49;6;4583;36939;4;2297;2247;553;535;43;7;4681;29768;4;4925;433;45;8;4632;29403;4;4867;431;45;9;2552;16279;4;2697;482;47
02.10.21;15:25:00;1;371;5818;0;2;3771;18952;4;3971;361;52;3;2232;12747;4;2347;419;44;4;3366;19184;5;3506;219;49;5;6362;48811;4;3484;2805;391;630;49;6;4734;36556;4;2380;2313;555;528;43;7;4786;29378;4;5030;431;45;8;4717;29016;4;4961;425;45;9;2607;16067;4;2754;474;47
02.10.21;15:20:00;1;375;5786;0;2;3768;18638;4;3971;358;52;3;2234;12561;4;2348;419;44;4;3370;18905;5;3511;219;48;5;6451;48280;4;3532;2857;392;627;49;6;4807;36160;4;2403;2347;550;531;43;7;4809;28979;4;5057;431;45;8;4744;28625;4;4988;431;45;9;2624;15850;4;2773;475;47
02.10.21;15:15:00;1;357;5756;0;2;3765;18325;4;3961;355;52;3;2277;12375;4;2396;427;45;4;3372;18624;5;3513;218;48;5;6509;47742;4;3581;2879;389;626;49;6;4858;35759;4;2434;2384;550;534;43;7;4804;28580;4;5051;432;45;8;4775;28233;4;5012;433;45;9;2641;15633;4;2792;475;47
02.10.21;15:10:00;1;341;5726;0;2;3701;18010;4;3898;359;52;3;2309;12185;4;2431;449;45;4;3321;18342;5;3460;218;48;5;6474;47199;4;3546;2869;391;626;49;6;4811;35354;4;2413;2361;543;527;43;7;4751;28182;4;4995;434;46;8;4713;27835;4;4958;428;45;9;2612;15413;4;2761;475;47
02.10.21;15:05:00;1;317;5698;0;2;3730;17702;4;3928;358;52;3;2424;11993;4;2554;457;45;4;3359;18066;5;3499;217;48;5;6612;46658;4;3636;2927;388;625;49;6;4930;34951;4;2484;2412;545;527;43;7;4803;27783;4;5049;426;46;8;4753;27440;4;5000;428;45;9;2627;15194;4;2779;474;48
02.10.21;15:00:00;1;317;5672;0;2;3680;17391;4;3876;355;52;3;2416;11791;4;2547;459;45;4;3323;17786;5;3462;216;48;5;6603;46106;4;3642;2913;388;622;49;6;4919;34541;4;2476;2412;545;527;43;7;4749;27383;4;4986;431;46;8;4687;27044;4;4921;419;46;9;2600;14975;4;2743;472;48
02.10.21;14:55:00;1;316;5645;0;2;3644;17084;4;3837;359;52;3;2408;11589;4;2536;453;45;4;3335;17507;5;3473;217;48;5;6698;45556;4;3697;2962;386;621;49;6;4950;34131;4;2500;2425;542;521;44;7;4713;26988;4;4951;422;46;8;4663;26656;4;4900;424;46;9;2572;14760;4;2716;469;48